Weather History for KSDA - October, 2012

Change the Weather History Date:

Friday, October 12, 2012

  Actual Average Record
Temperature  
Mean Temperature 50 °F -  
Max Temperature 60 °F 69 °F 93 °F (1999)
Min Temperature 41 °F 44 °F 22 °F (1980)
Degree Days  
Heating Degree Days 14    
Moisture  
Dew Point 26 °F    
Average Humidity 38    
Maximum Humidity 72    
Minimum Humidity 23    
Precipitation  
Precipitation 0.00 in - - ()
Sea Level Pressure  
Sea Level Pressure 30.27 in    
Wind  
Wind Speed 10 mph (ESE)    
Max Wind Speed 17 mph    
Max Gust Speed 22 mph    
Visibility 10 miles    
Events Rain    
Averages and records for this station are not official NWS values.
T = Trace of Precipitation, MM = Missing Value Source: NWS Daily Summary

Daily Weather History Graph

Daily Weather History Graph

Search for Another Location

Airport or City:

Trip Planner

Search our weather history database for the weather conditions in past years. The results will help you decide how hot, cold, wet, or windy it might be!

Date:

Astronomy

Oct. 12, 2012 Rise Set
Actual Time 7:30 AM CDT 6:45 PM CDT
Civil Twilight 7:02 AM CDT 7:12 PM CDT
Nautical Twilight 6:30 AM CDT 7:44 PM CDT
Astronomical Twilight 5:59 AM CDT 8:15 PM CDT
Moon 4:13 AM CDT (10/12) 4:56 PM CDT (10/12)
Length of Visible Light 12h 09m
Length of Day
11h 14m
Waning Crescent, 10% of the Moon is Illuminated
Oct 12
Waning Crescent
Oct 15
New
Oct 21
First Quarter
Oct 29
Full
Nov 6
Last Quarter

Hourly Weather History & Observations

Time (CDT) Temp. Windchill Dew Point Humidity Pressure Visibility Wind Dir Wind Speed Gust Speed Precip Events Conditions
12:15 AM 51.8 °F - 24.8 °F 35% 30.35 in 10.0 mi NE 15.0 mph - N/A   Overcast
12:35 AM 50.0 °F - 24.8 °F 37% 30.35 in 10.0 mi NE 10.4 mph - N/A   Overcast
12:55 AM 50.0 °F - 21.2 °F 32% 30.35 in 10.0 mi NE 15.0 mph - N/A   Overcast
1:15 AM 50.0 °F - 21.2 °F 32% 30.35 in 10.0 mi NE 11.5 mph 18.4 mph N/A   Overcast
1:35 AM 50.0 °F - 21.2 °F 32% 30.35 in 10.0 mi NE 10.4 mph - N/A   Overcast
1:55 AM 50.0 °F - 19.4 °F 30% 30.35 in 10.0 mi NE 9.2 mph - N/A   Overcast
2:15 AM 50.0 °F - 17.6 °F 28% 30.35 in 10.0 mi NE 10.4 mph - N/A   Overcast
2:35 AM 50.0 °F - 15.8 °F 26% 30.35 in 10.0 mi NE 9.2 mph 17.3 mph N/A   Overcast
3:15 AM 48.2 °F - 15.8 °F 27% 30.34 in 10.0 mi NE 10.4 mph - N/A   Scattered Clouds
3:35 AM 48.2 °F - 15.8 °F 27% 30.34 in 10.0 mi NE 8.1 mph - N/A   Scattered Clouds
3:55 AM 46.4 °F 42.9 °F 15.8 °F 29% 30.34 in 10.0 mi ENE 6.9 mph - N/A   Scattered Clouds
4:15 AM 46.4 °F 42.9 °F 15.8 °F 29% 30.34 in 10.0 mi NE 6.9 mph - N/A   Scattered Clouds
4:35 AM 46.4 °F 42.9 °F 15.8 °F 29% 30.33 in 10.0 mi ENE 6.9 mph - N/A   Scattered Clouds
4:55 AM 46.4 °F 45.2 °F 15.8 °F 29% 30.33 in 10.0 mi ENE 3.5 mph - N/A   Scattered Clouds
5:15 AM 44.6 °F 41.4 °F 15.8 °F 31% 30.33 in 10.0 mi NE 5.8 mph - N/A   Scattered Clouds
5:35 AM 44.6 °F 42.2 °F 17.6 °F 34% 30.33 in 10.0 mi NE 4.6 mph - N/A   Scattered Clouds
5:55 AM 42.8 °F 40.1 °F 17.6 °F 36% 30.34 in 10.0 mi ENE 4.6 mph - N/A   Scattered Clouds
6:15 AM 42.8 °F 40.1 °F 19.4 °F 39% 30.34 in 10.0 mi NE 4.6 mph - N/A   Scattered Clouds
6:35 AM 42.8 °F 40.1 °F 19.4 °F 39% 30.35 in 10.0 mi NE 4.6 mph - N/A   Scattered Clouds
6:55 AM 41.0 °F 38.0 °F 19.4 °F 42% 30.35 in 10.0 mi ENE 4.6 mph - N/A   Clear
7:15 AM 41.0 °F 39.0 °F 19.4 °F 42% 30.37 in 10.0 mi NE 3.5 mph - N/A   Scattered Clouds
7:35 AM 41.0 °F 37.1 °F 19.4 °F 42% 30.37 in 10.0 mi NE 5.8 mph - N/A   Scattered Clouds
7:55 AM 41.0 °F 38.0 °F 19.4 °F 42% 30.37 in 10.0 mi ENE 4.6 mph - N/A   Scattered Clouds
8:15 AM 42.8 °F 40.1 °F 19.4 °F 39% 30.38 in 10.0 mi ENE 4.6 mph - N/A   Overcast
8:35 AM 44.6 °F 40.7 °F 19.4 °F 37% 30.37 in 10.0 mi ENE 6.9 mph - N/A   Mostly Cloudy
8:55 AM 44.6 °F 39.7 °F 19.4 °F 37% 30.37 in 7.0 mi East 9.2 mph - N/A   Clear
9:15 AM 46.4 °F 41.1 °F 19.4 °F 34% 30.36 in 10.0 mi East 11.5 mph - N/A   Clear
9:35 AM 48.2 °F - 19.4 °F 32% 30.36 in 10.0 mi East 11.5 mph - N/A   Clear
9:55 AM 50.0 °F - 17.6 °F 28% 30.36 in 10.0 mi ESE 13.8 mph 19.6 mph N/A   Clear
10:15 AM 51.8 °F - 17.6 °F 26% 30.35 in 10.0 mi East 17.3 mph 20.7 mph N/A   Clear
10:35 AM 53.6 °F - 19.4 °F 26% 30.34 in 10.0 mi East 13.8 mph 20.7 mph N/A   Clear
11:15 AM 53.6 °F - 19.4 °F 26% 30.34 in 10.0 mi SE 13.8 mph - N/A   Scattered Clouds
11:35 AM 55.4 °F - 19.4 °F 25% 30.34 in 10.0 mi SE 12.7 mph - N/A   Scattered Clouds
11:55 AM 55.4 °F - 19.4 °F 25% 30.33 in 10.0 mi ESE 10.4 mph - N/A   Scattered Clouds
12:15 PM 57.2 °F - 19.4 °F 23% 30.32 in 10.0 mi ESE 11.5 mph - N/A   Scattered Clouds
12:35 PM 57.2 °F - 19.4 °F 23% 30.31 in 10.0 mi East 13.8 mph 21.9 mph N/A   Clear
12:55 PM 57.2 °F - 19.4 °F 23% 30.31 in 10.0 mi ESE 15.0 mph 18.4 mph N/A   Scattered Clouds
1:35 PM 59.0 °F - 21.2 °F 23% 30.29 in 10.0 mi SSE 13.8 mph - N/A   Scattered Clouds
1:55 PM 57.2 °F - 23.0 °F 27% 30.27 in 10.0 mi SE 11.5 mph 17.3 mph N/A   Scattered Clouds
2:15 PM 57.2 °F - 24.8 °F 29% 30.25 in 10.0 mi SE 11.5 mph - N/A   Mostly Cloudy
2:35 PM 60.8 °F - 24.8 °F 25% 30.24 in 10.0 mi SSE 15.0 mph 18.4 mph N/A   Overcast
2:55 PM 60.8 °F - 24.8 °F 25% 30.22 in 10.0 mi ESE 11.5 mph - N/A   Mostly Cloudy
3:15 PM 60.8 °F - 24.8 °F 25% 30.21 in 10.0 mi SE 12.7 mph - N/A   Scattered Clouds
3:35 PM 60.8 °F - 26.6 °F 27% 30.20 in 10.0 mi SE 10.4 mph 17.3 mph N/A   Mostly Cloudy
3:55 PM 59.0 °F - 24.8 °F 27% 30.20 in 10.0 mi SE 9.2 mph - N/A   Overcast
4:15 PM 59.0 °F - 26.6 °F 29% 30.18 in 10.0 mi ESE 9.2 mph - N/A   Overcast
4:35 PM 60.8 °F - 26.6 °F 27% 30.16 in 10.0 mi ESE 12.7 mph - N/A   Overcast
5:15 PM 59.0 °F - 35.6 °F 42% 30.17 in 10.0 mi SSE 10.4 mph 18.4 mph N/A   Overcast
5:55 PM 57.2 °F - 39.2 °F 51% 30.18 in 10.0 mi SSE 9.2 mph - N/A   Overcast
6:15 PM 57.2 °F - 39.2 °F 51% 30.17 in 10.0 mi SSE 8.1 mph - N/A   Overcast
6:35 PM 57.2 °F - 39.2 °F 51% 30.17 in 10.0 mi South 8.1 mph - N/A   Overcast
6:55 PM 57.2 °F - 37.4 °F 48% 30.15 in 10.0 mi SSE 8.1 mph - N/A   Overcast
7:15 PM 57.2 °F - 39.2 °F 51% 30.14 in 10.0 mi SE 5.8 mph - N/A   Overcast
7:35 PM 57.2 °F - 39.2 °F 51% 30.13 in 10.0 mi SSE 4.6 mph - N/A   Overcast
7:55 PM 57.2 °F - 39.2 °F 51% 30.14 in 10.0 mi SSE 6.9 mph - N/A   Overcast
8:15 PM 55.4 °F - 41.0 °F 58% 30.14 in 10.0 mi South 5.8 mph - N/A   Overcast
8:35 PM 55.4 °F - 41.0 °F 58% 30.13 in 10.0 mi South 3.5 mph - N/A   Overcast
9:15 PM 55.4 °F - 42.8 °F 63% 30.11 in 10.0 mi SSE 5.8 mph - N/A   Overcast
9:35 PM 55.4 °F - 44.6 °F 67% 30.11 in 10.0 mi SSE 5.8 mph - N/A   Overcast
9:55 PM 55.4 °F - 44.6 °F 67% 30.10 in 10.0 mi SE 8.1 mph - N/A   Overcast
10:15 PM 55.4 °F - 44.6 °F 67% 30.09 in 10.0 mi SSE 6.9 mph - N/A Rain Light Rain
10:35 PM 55.4 °F - 44.6 °F 67% 30.08 in 10.0 mi SSE 8.1 mph - N/A   Overcast
10:55 PM 55.4 °F - 46.4 °F 72% 30.07 in 10.0 mi SSE 6.9 mph - N/A   Overcast
11:40 PM 55.4 °F - 46.4 °F 72% 30.05 in 10.0 mi South 10.4 mph - N/A   Overcast